#Datum;Uhrzeit;WR;Pac;DaySum;Status;WR;Pac;DaySum;Status;Pdc1;Udc;Temp;WR;Pac;DaySum;Status;Pdc1;Udc;Temp;WR;Pac;DaySum;Status;Pdc1;Udc;Temp;WR;Pac;DaySum;Status;Pdc1;Pdc2;Udc1;Udc2;Temp;WR;Pac;DaySum;Status;Pdc1;Pdc2;Udc1;Udc2;Temp;WR;Pac;DaySum;Status;Pdc1;Udc;Temp;WR;Pac;DaySum;Status;Pdc1;Udc;Temp;WR;Pac;DaySum;Status;Pdc1;Udc;Temp
31.10.20;23:55:00;1;378;13100;0;2;0;11495;0;0;0;0;3;0;7062;0;0;0;0;4;0;8476;0;0;0;0;5;0;0;0;0;0;0;0;0;6;0;16138;0;0;0;0;0;0;7;0;14895;0;0;0;0;8;0;7227;0;0;0;0;9;0;7595;0;0;0;0
31.10.20;23:50:00;1;336;13067;0;2;0;11495;0;0;0;0;3;0;7062;0;0;0;0;4;0;8476;0;0;0;0;5;0;0;0;0;0;0;0;0;6;0;16138;0;0;0;0;0;0;7;0;14895;0;0;0;0;8;0;7227;0;0;0;0;9;0;7595;0;0;0;0
31.10.20;23:45:00;1;351;13039;0;2;0;11495;0;0;0;0;3;0;7062;0;0;0;0;4;0;8476;0;0;0;0;5;0;0;0;0;0;0;0;0;6;0;16138;0;0;0;0;0;0;7;0;14895;0;0;0;0;8;0;7227;0;0;0;0;9;0;7595;0;0;0;0
31.10.20;23:40:00;1;337;13010;0;2;0;11495;0;0;0;0;3;0;7062;0;0;0;0;4;0;8476;0;0;0;0;5;0;0;0;0;0;0;0;0;6;0;16138;0;0;0;0;0;0;7;0;14895;0;0;0;0;8;0;7227;0;0;0;0;9;0;7595;0;0;0;0
31.10.20;23:35:00;1;354;12982;0;2;0;11495;0;0;0;0;3;0;7062;0;0;0;0;4;0;8476;0;0;0;0;5;0;0;0;0;0;0;0;0;6;0;16138;0;0;0;0;0;0;7;0;14895;0;0;0;0;8;0;7227;0;0;0;0;9;0;7595;0;0;0;0
31.10.20;23:30:00;1;444;12952;0;2;0;11495;0;0;0;0;3;0;7062;0;0;0;0;4;0;8476;0;0;0;0;5;0;0;0;0;0;0;0;0;6;0;16138;0;0;0;0;0;0;7;0;14895;0;0;0;0;8;0;7227;0;0;0;0;9;0;7595;0;0;0;0
31.10.20;23:25:00;1;386;12915;0;2;0;11495;0;0;0;0;3;0;7062;0;0;0;0;4;0;8476;0;0;0;0;5;0;0;0;0;0;0;0;0;6;0;16138;0;0;0;0;0;0;7;0;14895;0;0;0;0;8;0;7227;0;0;0;0;9;0;7595;0;0;0;0
31.10.20;23:20:00;1;379;12883;0;2;0;11495;0;0;0;0;3;0;7062;0;0;0;0;4;0;8476;0;0;0;0;5;0;0;0;0;0;0;0;0;6;0;16138;0;0;0;0;0;0;7;0;14895;0;0;0;0;8;0;7227;0;0;0;0;9;0;7595;0;0;0;0
31.10.20;23:15:00;1;395;12851;0;2;0;11495;0;0;0;0;3;0;7062;0;0;0;0;4;0;8476;0;0;0;0;5;0;0;0;0;0;0;0;0;6;0;16138;0;0;0;0;0;0;7;0;14895;0;0;0;0;8;0;7227;0;0;0;0;9;0;7595;0;0;0;0
31.10.20;23:10:00;1;451;12818;0;2;0;11495;0;0;0;0;3;0;7062;0;0;0;0;4;0;8476;0;0;0;0;5;0;0;0;0;0;0;0;0;6;0;16138;0;0;0;0;0;0;7;0;14895;0;0;0;0;8;0;7227;0;0;0;0;9;0;7595;0;0;0;0
31.10.20;23:05:00;1;466;12784;0;2;0;11495;0;0;0;0;3;0;7062;0;0;0;0;4;0;8476;0;0;0;0;5;0;0;0;0;0;0;0;0;6;0;16138;0;0;0;0;0;0;7;0;14895;0;0;0;0;8;0;7227;0;0;0;0;9;0;7595;0;0;0;0
31.10.20;23:00:00;1;475;12745;0;2;0;11495;0;0;0;0;3;0;7062;0;0;0;0;4;0;8476;0;0;0;0;5;0;0;0;0;0;0;0;0;6;0;16138;0;0;0;0;0;0;7;0;14895;0;0;0;0;8;0;7227;0;0;0;0;9;0;7595;0;0;0;0
31.10.20;22:55:00;1;435;12704;0;2;0;11495;0;0;0;0;3;0;7062;0;0;0;0;4;0;8476;0;0;0;0;5;0;0;0;0;0;0;0;0;6;0;16138;2;0;0;0;0;0;7;0;14895;0;0;0;0;8;0;7227;0;0;0;0;9;0;7595;0;0;0;0
31.10.20;22:50:00;1;420;12667;0;2;0;11495;0;0;0;0;3;0;7062;0;0;0;0;4;0;8476;0;0;0;0;5;0;0;0;0;0;0;0;0;6;0;16138;2;0;0;0;0;0;7;0;14895;0;0;0;0;8;0;7227;0;0;0;0;9;0;7595;0;0;0;0
31.10.20;22:45:00;1;389;12632;0;2;0;11495;0;0;0;0;3;0;7062;0;0;0;0;4;0;8476;0;0;0;0;5;0;0;0;0;0;0;0;0;6;0;16138;2;0;0;0;0;0;7;0;14895;0;0;0;0;8;0;7227;0;0;0;0;9;0;7595;0;0;0;0
31.10.20;22:40:00;1;412;12599;0;2;0;11495;0;0;0;0;3;0;7062;0;0;0;0;4;0;8476;0;0;0;0;5;0;0;0;0;0;0;0;0;6;0;16138;2;0;0;0;0;0;7;0;14895;0;0;0;0;8;0;7227;0;0;0;0;9;0;7595;0;0;0;0
31.10.20;22:35:00;1;466;12565;0;2;0;11495;0;0;0;0;3;0;7062;0;0;0;0;4;0;8476;0;0;0;0;5;0;0;0;0;0;0;0;0;6;0;16138;2;0;0;0;0;0;7;0;14895;0;0;0;0;8;0;7227;0;0;0;0;9;0;7595;0;0;0;0
31.10.20;22:30:00;1;411;12527;0;2;0;11495;0;0;0;0;3;0;7062;0;0;0;0;4;0;8476;0;0;0;0;5;0;0;0;0;0;0;0;0;6;0;16138;2;0;0;0;0;0;7;0;14895;0;0;0;0;8;0;7227;0;0;0;0;9;0;7595;0;0;0;0
31.10.20;22:25:00;1;409;12491;0;2;0;11495;0;0;0;0;3;0;7062;0;0;0;0;4;0;8476;0;0;0;0;5;0;0;0;0;0;0;0;0;6;0;16138;2;0;0;0;0;0;7;0;14895;0;0;0;0;8;0;7227;0;0;0;0;9;0;7595;0;0;0;0
31.10.20;22:20:00;1;408;12458;0;2;0;11495;0;0;0;0;3;0;7062;0;0;0;0;4;0;8476;0;0;0;0;5;0;0;0;0;0;0;0;0;6;0;16138;2;0;0;0;0;0;7;0;14895;0;0;0;0;8;0;7227;0;0;0;0;9;0;7595;0;0;0;0
31.10.20;22:15:00;1;382;12424;0;2;0;11495;0;0;0;0;3;0;7062;0;0;0;0;4;0;8476;0;0;0;0;5;0;0;0;0;0;0;0;0;6;0;16138;2;0;0;0;0;0;7;0;14895;0;0;0;0;8;0;7227;0;0;0;0;9;0;7595;0;0;0;0
31.10.20;22:10:00;1;364;12390;0;2;0;11495;0;0;0;0;3;0;7062;0;0;0;0;4;0;8476;0;0;0;0;5;0;0;0;0;0;0;0;0;6;0;16138;2;0;0;0;0;0;7;0;14895;0;0;0;0;8;0;7227;0;0;0;0;9;0;7595;0;0;0;0
31.10.20;22:05:00;1;392;12360;0;2;0;11495;0;0;0;0;3;0;7062;0;0;0;0;4;0;8476;0;0;0;0;5;0;0;0;0;0;0;0;0;6;0;16138;2;0;0;0;0;0;7;0;14895;0;0;0;0;8;0;7227;0;0;0;0;9;0;7595;0;0;0;0
31.10.20;22:00:00;1;384;12329;0;2;0;11495;0;0;0;0;3;0;7062;0;0;0;0;4;0;8476;0;0;0;0;5;0;0;0;0;0;0;0;0;6;0;16138;2;0;0;0;0;0;7;0;14895;0;0;0;0;8;0;7227;0;0;0;0;9;0;7595;0;0;0;0
31.10.20;21:55:00;1;400;12297;0;2;0;11495;0;0;0;0;3;0;7062;0;0;0;0;4;0;8476;0;0;0;0;5;0;0;0;0;0;0;0;0;6;0;16138;2;0;0;0;0;0;7;0;14895;0;0;0;0;8;0;7227;0;0;0;0;9;0;7595;0;0;0;0
31.10.20;21:50:00;1;356;12263;0;2;0;11495;0;0;0;0;3;0;7062;0;0;0;0;4;0;8476;0;0;0;0;5;0;0;0;0;0;0;0;0;6;0;16138;2;0;0;0;0;0;7;0;14895;0;0;0;0;8;0;7227;0;0;0;0;9;0;7595;0;0;0;0
31.10.20;21:45:00;1;407;12234;0;2;0;11495;0;0;0;0;3;0;7062;0;0;0;0;4;0;8476;0;0;0;0;5;0;0;0;0;0;0;0;0;6;0;16138;2;0;0;0;0;0;7;0;14895;0;0;0;0;8;0;7227;0;0;0;0;9;0;7595;0;0;0;0
31.10.20;21:40:00;1;456;12201;0;2;0;11495;0;0;0;0;3;0;7062;0;0;0;0;4;0;8476;0;0;0;0;5;0;0;0;0;0;0;0;0;6;0;16138;2;0;0;0;0;0;7;0;14895;0;0;0;0;8;0;7227;0;0;0;0;9;0;7595;0;0;0;0
31.10.20;21:35:00;1;458;12161;0;2;0;11495;0;0;0;0;3;0;7062;0;0;0;0;4;0;8476;0;0;0;0;5;0;0;0;0;0;0;0;0;6;0;16138;2;0;0;0;0;0;7;0;14895;0;0;0;0;8;0;7227;0;0;0;0;9;0;7595;0;0;0;0
31.10.20;21:30:00;1;389;12123;0;2;0;11495;0;0;0;0;3;0;7062;0;0;0;0;4;0;8476;0;0;0;0;5;0;0;0;0;0;0;0;0;6;0;16138;2;0;0;0;0;0;7;0;14895;0;0;0;0;8;0;7227;0;0;0;0;9;0;7595;0;0;0;0
31.10.20;21:25:00;1;400;12091;0;2;0;11495;0;0;0;0;3;0;7062;0;0;0;0;4;0;8476;0;0;0;0;5;0;0;0;0;0;0;0;0;6;0;16138;2;0;0;0;0;0;7;0;14895;0;0;0;0;8;0;7227;0;0;0;0;9;0;7595;0;0;0;0
31.10.20;21:20:00;1;405;12057;0;2;0;11495;0;0;0;0;3;0;7062;0;0;0;0;4;0;8476;0;0;0;0;5;0;0;0;0;0;0;0;0;6;0;16138;2;0;0;0;0;0;7;0;14895;0;0;0;0;8;0;7227;0;0;0;0;9;0;7595;0;0;0;0
31.10.20;21:15:00;1;381;12023;0;2;0;11495;0;0;0;0;3;0;7062;0;0;0;0;4;0;8476;0;0;0;0;5;0;0;0;0;0;0;0;0;6;0;16138;2;0;0;0;0;0;7;0;14895;0;0;0;0;8;0;7227;0;0;0;0;9;0;7595;0;0;0;0
31.10.20;21:10:00;1;394;11992;0;2;0;11495;0;0;0;0;3;0;7062;0;0;0;0;4;0;8476;0;0;0;0;5;0;0;0;0;0;0;0;0;6;0;16138;2;0;0;0;0;0;7;0;14895;0;0;0;0;8;0;7227;0;0;0;0;9;0;7595;0;0;0;0
31.10.20;21:05:00;1;371;11958;0;2;0;11495;0;0;0;0;3;0;7062;0;0;0;0;4;0;8476;0;0;0;0;5;0;0;0;0;0;0;0;0;6;0;16138;2;0;0;0;0;0;7;0;14895;0;0;0;0;8;0;7227;0;0;0;0;9;0;7595;0;0;0;0
31.10.20;21:00:00;1;359;11928;0;2;0;11495;0;0;0;0;3;0;7062;0;0;0;0;4;0;8476;0;0;0;0;5;0;0;0;0;0;0;0;0;6;0;16138;2;0;0;0;0;0;7;0;14895;0;0;0;0;8;0;7227;0;0;0;0;9;0;7595;0;0;0;0
31.10.20;20:55:00;1;354;11898;0;2;0;11495;0;0;0;0;3;0;7062;0;0;0;0;4;0;8476;0;0;0;0;5;0;0;0;0;0;0;0;0;6;0;16138;2;0;0;0;0;0;7;0;14895;0;0;0;0;8;0;7227;0;0;0;0;9;0;7595;0;0;0;0
31.10.20;20:50:00;1;348;11868;0;2;0;11495;0;0;0;0;3;0;7062;0;0;0;0;4;0;8476;0;0;0;0;5;0;0;0;0;0;0;0;0;6;0;16138;2;0;0;0;0;0;7;0;14895;0;0;0;0;8;0;7227;0;0;0;0;9;0;7595;0;0;0;0
31.10.20;20:45:00;1;398;11839;0;2;0;11495;0;0;0;0;3;0;7062;0;0;0;0;4;0;8476;0;0;0;0;5;0;0;0;0;0;0;0;0;6;0;16138;2;0;0;0;0;0;7;0;14895;0;0;0;0;8;0;7227;0;0;0;0;9;0;7595;0;0;0;0
31.10.20;20:40:00;1;417;11806;0;2;0;11495;0;0;0;0;3;0;7062;0;0;0;0;4;0;8476;0;0;0;0;5;0;0;0;0;0;0;0;0;6;0;16138;2;0;0;0;0;0;7;0;14895;0;0;0;0;8;0;7227;0;0;0;0;9;0;7595;0;0;0;0
31.10.20;20:35:00;1;429;11771;0;2;0;11495;0;0;0;0;3;0;7062;0;0;0;0;4;0;8476;0;0;0;0;5;0;0;0;0;0;0;0;0;6;0;16138;2;0;0;0;0;0;7;0;14895;0;0;0;0;8;0;7227;0;0;0;0;9;0;7595;0;0;0;0
31.10.20;20:30:00;1;404;11735;0;2;0;11495;0;0;0;0;3;0;7062;0;0;0;0;4;0;8476;0;0;0;0;5;0;0;0;0;0;0;0;0;6;0;16138;2;0;0;0;0;0;7;0;14895;0;0;0;0;8;0;7227;0;0;0;0;9;0;7595;0;0;0;0
31.10.20;20:25:00;1;448;11702;0;2;0;11495;0;0;0;0;3;0;7062;0;0;0;0;4;0;8476;0;0;0;0;5;0;0;0;0;0;0;0;0;6;0;16138;2;0;0;0;0;0;7;0;14895;0;0;0;0;8;0;7227;0;0;0;0;9;0;7595;0;0;0;0
31.10.20;20:20:00;1;461;11664;0;2;0;11495;0;0;0;0;3;0;7062;0;0;0;0;4;0;8476;0;0;0;0;5;0;0;0;0;0;0;0;0;6;0;16138;2;0;0;0;0;0;7;0;14895;0;0;0;0;8;0;7227;0;0;0;0;9;0;7595;0;0;0;0
31.10.20;20:15:00;1;593;11625;0;2;0;11495;0;0;0;0;3;0;7062;0;0;0;0;4;0;8476;0;0;0;0;5;0;0;0;0;0;0;0;0;6;0;16138;2;0;0;0;0;0;7;0;14895;0;0;0;0;8;0;7227;0;0;0;0;9;0;7595;0;0;0;0
31.10.20;20:10:00;1;374;11583;0;2;0;11495;0;0;0;0;3;0;7062;0;0;0;0;4;0;8476;0;0;0;0;5;0;0;0;0;0;0;0;0;6;0;16138;2;0;0;0;0;0;7;0;14895;0;0;0;0;8;0;7227;0;0;0;0;9;0;7595;0;0;0;0
31.10.20;20:05:00;1;359;11551;0;2;0;11495;0;0;0;0;3;0;7062;0;0;0;0;4;0;8476;0;0;0;0;5;0;0;0;0;0;0;0;0;6;0;16138;2;0;0;0;0;0;7;0;14895;0;0;0;0;8;0;7227;0;0;0;0;9;0;7595;0;0;0;0
31.10.20;20:00:00;1;342;11521;0;2;0;11495;0;0;0;0;3;0;7062;0;0;0;0;4;0;8476;0;0;0;0;5;0;0;0;0;0;0;0;0;6;0;16138;2;0;0;0;0;0;7;0;14895;0;0;0;0;8;0;7227;0;0;0;0;9;0;7595;0;0;0;0
31.10.20;19:55:00;1;335;11492;0;2;0;11495;0;0;0;0;3;0;7062;0;0;0;0;4;0;8476;0;0;0;0;5;0;0;0;0;0;0;0;0;6;0;16138;2;0;0;0;0;0;7;0;14895;0;0;0;0;8;0;7227;0;0;0;0;9;0;7595;0;0;0;0
31.10.20;19:50:00;1;404;11463;0;2;0;11495;0;0;0;0;3;0;7062;0;0;0;0;4;0;8476;0;0;0;0;5;0;0;0;0;0;0;0;0;6;0;16138;2;0;0;0;0;0;7;0;14895;0;0;0;0;8;0;7227;0;0;0;0;9;0;7595;0;0;0;0
31.10.20;19:45:00;1;370;11431;0;2;0;11495;0;0;0;0;3;0;7062;0;0;0;0;4;0;8476;0;0;0;0;5;0;0;0;0;0;0;0;0;6;0;16138;2;0;0;0;0;0;7;0;14895;0;0;0;0;8;0;7227;0;0;0;0;9;0;7595;0;0;0;0
31.10.20;19:40:00;1;398;11399;0;2;0;11495;0;0;0;0;3;0;7062;0;0;0;0;4;0;8476;0;0;0;0;5;0;0;0;0;0;0;0;0;6;0;16138;2;0;0;0;0;0;7;0;14895;0;0;0;0;8;0;7227;0;0;0;0;9;0;7595;0;0;0;0
31.10.20;19:35:00;1;385;11366;0;2;0;11495;0;0;0;0;3;0;7062;0;0;0;0;4;0;8476;0;0;0;0;5;0;0;0;0;0;0;0;0;6;0;16138;2;0;0;0;0;0;7;0;14895;0;0;0;0;8;0;7227;0;0;0;0;9;0;7595;0;0;0;0
31.10.20;19:30:00;1;286;11332;0;2;0;11495;0;0;0;0;3;0;7062;0;0;0;0;4;0;8476;0;0;0;0;5;0;0;0;0;0;0;0;0;6;0;16138;2;0;0;0;0;0;7;0;14895;0;0;0;0;8;0;7227;0;0;0;0;9;0;7595;0;0;0;0
31.10.20;19:25:00;1;314;11309;0;2;0;11495;0;0;0;0;3;0;7062;0;0;0;0;4;0;8476;0;0;0;0;5;0;0;0;0;0;0;0;0;6;0;16138;2;0;0;0;0;0;7;0;14895;0;0;0;0;8;0;7227;0;0;0;0;9;0;7595;0;0;0;0
31.10.20;19:20:00;1;374;11283;0;2;0;11495;0;0;0;0;3;0;7062;0;0;0;0;4;0;8476;0;0;0;0;5;0;0;0;0;0;0;0;0;6;0;16138;2;0;0;0;0;0;7;0;14895;0;0;0;0;8;0;7227;0;0;0;0;9;0;7595;0;0;0;0
31.10.20;19:15:00;1;375;11251;0;2;0;11495;0;0;0;0;3;0;7062;0;0;0;0;4;0;8476;0;0;0;0;5;0;0;0;0;0;0;0;0;6;0;16138;2;0;0;0;0;0;7;0;14895;0;0;0;0;8;0;7227;0;0;0;0;9;0;7595;0;0;0;0
31.10.20;19:10:00;1;376;11221;0;2;0;11495;0;0;0;0;3;0;7062;0;0;0;0;4;0;8476;0;0;0;0;5;0;0;0;0;0;0;0;0;6;0;16138;2;0;0;0;0;0;7;0;14895;0;0;0;0;8;0;7227;0;0;0;0;9;0;7595;0;0;0;0
31.10.20;19:05:00;1;341;11191;0;2;0;11495;0;0;0;0;3;0;7062;0;0;0;0;4;0;8476;0;0;0;0;5;0;0;0;0;0;0;0;0;6;0;16138;2;0;0;0;0;0;7;0;14895;0;0;0;0;8;0;7227;0;0;0;0;9;0;7595;0;0;0;0
31.10.20;19:00:00;1;333;11163;0;2;0;11495;0;0;0;0;3;0;7062;0;0;0;0;4;0;8476;0;0;0;0;5;0;0;0;0;0;0;0;0;6;0;16138;2;0;0;0;0;0;7;0;14895;0;0;0;0;8;0;7227;0;0;0;0;9;0;7595;0;0;0;0
31.10.20;18:55:00;1;359;11135;0;2;0;11495;0;0;0;0;3;0;7062;0;0;0;0;4;0;8476;0;0;0;0;5;0;0;0;0;0;0;0;0;6;0;16138;2;0;0;0;0;0;7;0;14895;0;0;0;0;8;0;7227;0;0;0;0;9;0;7595;0;0;0;0
31.10.20;18:50:00;1;322;11105;0;2;0;11495;0;0;0;0;3;0;7062;0;0;0;0;4;0;8476;0;0;0;0;5;0;0;0;0;0;0;0;0;6;0;16138;2;0;0;0;0;0;7;0;14895;0;0;0;0;8;0;7227;0;0;0;0;9;0;7595;0;0;0;0
31.10.20;18:45:00;1;286;11076;0;2;0;11495;0;0;0;0;3;0;7062;0;0;0;0;4;0;8476;0;0;0;0;5;0;0;0;0;0;0;0;0;6;0;16138;2;0;0;0;0;0;7;0;14895;0;0;0;0;8;0;7227;0;0;0;0;9;0;7595;0;0;0;0
31.10.20;18:40:00;1;433;11052;0;2;0;11495;0;0;0;0;3;0;7062;0;0;0;0;4;0;8476;0;0;0;0;5;0;0;0;0;0;0;0;0;6;0;16138;2;0;0;0;0;0;7;0;14895;0;0;0;0;8;0;7227;0;0;0;0;9;0;7595;0;0;0;0
31.10.20;18:35:00;1;470;11016;0;2;0;11495;0;0;0;0;3;0;7062;0;0;0;0;4;0;8476;0;0;0;0;5;0;0;0;0;0;0;0;0;6;0;16138;2;0;0;0;0;0;7;0;14895;0;0;0;0;8;0;7227;0;0;0;0;9;0;7595;0;0;0;0
31.10.20;18:30:00;1;560;10976;0;2;0;11495;0;0;0;0;3;0;7062;0;0;0;0;4;0;8476;0;0;0;0;5;0;0;0;0;0;0;0;0;6;0;16138;2;0;0;0;0;0;7;0;14895;0;0;0;0;8;0;7227;0;0;0;0;9;0;7595;0;0;0;0
31.10.20;18:25:00;1;750;10933;0;2;0;11495;0;0;0;0;3;0;7062;0;0;0;0;4;0;8476;0;0;0;0;5;0;0;0;0;0;0;0;0;6;0;16138;2;0;0;0;0;0;7;0;14895;0;0;0;0;8;0;7227;0;0;0;0;9;0;7595;0;0;0;0
31.10.20;18:20:00;1;760;10867;0;2;0;11495;0;0;0;0;3;0;7062;0;0;0;0;4;0;8476;0;0;0;0;5;0;0;0;0;0;0;0;0;6;0;16138;2;0;0;0;0;0;7;0;14895;0;0;0;0;8;0;7227;0;0;0;0;9;0;7595;0;0;0;0
31.10.20;18:15:00;1;1362;10803;0;2;0;11495;0;0;0;0;3;0;7062;0;0;0;0;4;0;8476;0;0;0;0;5;0;0;0;0;0;0;0;0;6;0;16138;2;0;0;0;0;0;7;0;14895;0;0;0;0;8;0;7227;0;0;0;0;9;0;7595;0;0;0;0
31.10.20;18:10:00;1;1568;10693;0;2;0;11495;0;0;0;0;3;0;7062;0;0;0;0;4;0;8476;0;0;0;0;5;0;0;0;0;0;0;0;0;6;0;16138;2;0;0;0;0;0;7;0;14895;0;0;0;0;8;0;7227;0;0;0;0;9;0;7595;0;0;0;0
31.10.20;18:05:00;1;1809;10554;0;2;0;11495;0;0;0;0;3;0;7062;0;0;0;0;4;0;8476;0;0;0;0;5;0;0;0;0;0;0;0;0;6;0;16138;2;0;0;0;0;0;7;0;14895;0;0;0;0;8;0;7227;0;0;0;0;9;0;7595;0;0;0;0
31.10.20;18:00:00;1;745;10398;0;2;0;11495;0;0;0;0;3;0;7062;0;0;0;0;4;0;8476;0;0;0;0;5;0;0;0;0;0;0;0;0;6;0;16138;2;0;0;0;0;0;7;0;14895;0;0;0;0;8;0;7227;0;0;0;0;9;0;7595;0;0;0;0
31.10.20;17:55:00;1;686;10336;0;2;0;11495;0;0;0;0;3;0;7062;0;0;0;0;4;0;8476;0;0;0;0;5;0;0;0;0;0;0;0;0;6;0;16138;2;0;0;0;0;0;7;0;14895;0;0;0;0;8;0;7227;0;0;0;0;9;0;7595;0;0;0;0
31.10.20;17:50:00;1;615;10278;0;2;0;11495;0;0;0;0;3;0;7062;0;0;0;0;4;0;8476;0;0;0;0;5;0;0;0;0;0;0;0;0;6;0;16138;2;0;0;0;0;0;7;0;14895;0;0;0;0;8;0;7227;0;0;0;0;9;0;7595;0;0;0;0
31.10.20;17:45:00;1;643;10226;0;2;0;11495;0;0;0;0;3;0;7062;0;0;0;0;4;0;8476;0;0;0;0;5;0;0;0;0;0;0;0;0;6;0;16138;2;0;0;0;0;0;7;0;14895;0;0;0;0;8;0;7227;0;0;0;0;9;0;7595;0;0;0;0
31.10.20;17:40:00;1;742;10173;0;2;0;11495;0;0;0;0;3;0;7062;0;0;0;0;4;0;8476;0;0;0;0;5;0;0;0;0;0;0;0;0;6;0;16138;2;0;0;0;0;0;7;0;14895;0;0;0;0;8;0;7227;0;0;0;0;9;0;7595;0;0;0;0
31.10.20;17:35:00;1;835;10121;0;2;0;11495;0;0;0;0;3;0;7062;0;0;0;0;4;0;8476;0;0;0;0;5;0;0;0;0;0;0;0;0;6;0;16138;2;0;0;0;0;0;7;0;14895;0;0;0;0;8;0;7227;0;0;0;0;9;0;7595;0;0;0;0
31.10.20;17:30:00;1;589;10057;0;2;0;11495;0;0;0;0;3;0;7062;0;0;0;0;4;0;8476;0;0;0;0;5;0;0;0;0;0;0;0;0;6;0;16138;2;0;0;0;0;0;7;0;14895;0;0;0;0;8;0;7227;0;0;0;0;9;0;7595;0;0;0;0
31.10.20;17:25:00;1;519;10007;0;2;0;11495;0;0;0;0;3;0;7062;0;0;0;0;4;0;8476;0;0;0;0;5;0;0;0;0;0;0;0;0;6;0;16138;2;0;0;0;0;0;7;0;14895;0;0;0;0;8;0;7227;0;0;0;0;9;0;7595;0;0;0;0
31.10.20;17:20:00;1;314;9965;0;2;0;11495;0;0;0;0;3;0;7062;0;0;0;0;4;0;8476;0;0;0;0;5;0;0;0;0;0;0;0;0;6;0;16138;2;0;0;0;0;0;7;0;14895;0;0;0;0;8;0;7227;0;0;0;0;9;0;7595;0;0;0;0
31.10.20;17:15:00;1;275;9940;0;2;0;11495;0;0;0;0;3;0;7062;0;0;34;3;4;0;8476;0;0;0;0;5;0;0;0;0;0;0;0;0;6;0;16138;2;0;0;0;0;0;7;0;14895;0;0;0;0;8;0;7227;0;0;0;0;9;0;7595;0;0;0;0
31.10.20;17:10:00;1;231;9917;0;2;0;11495;0;0;244;16;3;0;7062;6;0;320;21;4;0;8476;0;0;60;18;5;0;0;0;0;0;0;0;0;6;0;16138;2;0;0;0;0;0;7;0;14895;0;0;0;0;8;0;7227;0;0;0;0;9;0;7595;0;0;0;0
31.10.20;17:05:00;1;281;9898;0;2;0;11495;6;0;357;20;3;0;7062;6;2;427;21;4;0;8476;1;0;159;23;5;0;0;0;0;0;0;0;0;6;0;16138;23;9;0;180;438;30;7;0;14895;6;0;324;25;8;0;7227;2;0;322;23;9;0;7595;2;0;321;20
31.10.20;17:00:00;1;259;9874;0;2;0;11495;6;0;383;20;3;2;7062;6;5;443;22;4;0;8476;1;0;208;23;5;0;0;0;0;0;0;0;0;6;0;16138;23;2;8;504;239;31;7;0;14895;6;0;409;25;8;0;7227;6;0;391;23;9;0;7595;6;0;424;20
31.10.20;16:55:00;1;213;9850;0;2;0;11495;6;0;376;21;3;2;7062;6;5;437;22;4;0;8476;1;0;194;23;5;0;0;0;0;0;0;0;0;6;0;16138;23;9;3;306;417;31;7;0;14895;6;0;384;26;8;0;7227;6;0;384;23;9;0;7595;6;0;407;20
31.10.20;16:50:00;1;281;9833;0;2;0;11495;6;0;387;21;3;2;7062;6;6;451;22;4;0;8476;1;0;214;24;5;0;0;0;0;0;0;0;0;6;6;16138;23;5;6;483;533;32;7;0;14895;6;1;407;26;8;0;7227;6;0;399;23;9;0;7595;6;1;437;21
31.10.20;16:45:00;1;316;9809;0;2;6;11495;6;11;397;22;3;2;7061;6;10;475;23;4;1;8476;3;1;199;25;5;0;0;0;0;0;0;0;0;6;54;16137;4;21;41;451;424;33;7;1;14895;6;8;432;27;8;0;7227;6;1;448;24;9;0;7595;6;3;491;21
31.10.20;16:40:00;1;317;9782;0;2;77;11494;4;110;359;23;3;0;7061;6;0;533;23;4;34;8476;3;36;198;25;5;0;0;0;0;0;0;0;0;6;100;16132;4;58;65;451;424;33;7;45;14895;6;74;418;28;8;3;7227;6;10;459;24;9;3;7595;6;7;529;22
31.10.20;16:35:00;1;339;9756;0;2;118;11488;4;154;374;24;3;55;7061;4;96;463;24;4;57;8473;3;60;197;25;5;0;0;0;0;0;0;0;0;6;121;16123;4;57;69;451;424;33;7;81;14892;4;118;391;28;8;3;7226;6;7;489;25;9;6;7595;6;9;540;22
31.10.20;16:30:00;1;242;9727;0;2;146;11478;4;186;364;24;3;76;7057;4;117;478;24;4;75;8468;3;78;198;25;5;0;0;0;0;0;0;0;0;6;144;16113;4;70;83;451;424;34;7;103;14885;4;142;392;28;8;6;7226;6;16;476;25;9;5;7595;6;9;547;23
31.10.20;16:25:00;1;215;9706;0;2;145;11466;4;184;361;25;3;82;7050;4;122;458;25;4;85;8462;3;88;202;26;5;0;0;0;0;0;0;0;0;6;155;16101;4;65;67;451;424;34;7;136;14877;4;166;395;29;8;33;7226;6;56;382;25;9;8;7594;4;12;545;23
31.10.20;16:20:00;1;250;9688;0;2;217;11453;4;257;378;26;3;119;7043;4;159;482;25;4;141;8455;5;147;219;26;5;0;0;0;0;0;0;0;0;6;200;16088;4;108;116;451;424;34;7;194;14865;4;238;446;29;8;54;7223;4;98;454;25;9;67;7594;4;97;452;24
31.10.20;16:15:00;1;280;9668;0;2;509;11435;4;558;366;27;3;305;7034;4;348;416;26;4;329;8443;5;343;215;26;5;0;0;0;0;0;0;0;0;6;392;16071;4;189;216;478;527;34;7;415;14849;4;462;478;29;8;110;7218;4;154;468;26;9;92;7588;4;125;487;24
31.10.20;16:10:00;1;296;9645;0;2;535;11393;4;587;375;27;3;294;7008;4;335;407;26;4;335;8416;5;349;224;27;5;0;0;0;0;0;0;0;0;6;447;16037;4;218;240;528;548;34;7;556;14814;4;603;471;30;8;153;7209;4;193;486;26;9;115;7580;4;147;501;25
31.10.20;16:05:00;1;293;9621;0;2;644;11349;4;698;369;28;3;347;6984;4;391;409;26;4;391;8388;5;408;222;27;5;0;0;0;0;0;0;0;0;6;559;15998;4;284;290;571;546;34;7;728;14767;4;788;477;30;8;226;7196;4;267;472;26;9;136;7571;4;172;516;25
31.10.20;16:00:00;1;277;9596;0;2;1181;11294;4;1256;378;29;3;624;6954;4;677;430;27;4;593;8355;5;618;211;27;5;0;0;0;0;0;0;0;0;6;912;15952;4;460;472;583;557;34;7;1369;14706;4;1448;478;31;8;581;7177;4;627;440;26;9;184;7559;4;217;533;26
31.10.20;15:55:00;1;277;9573;0;2;1112;11201;4;1184;376;30;3;604;6905;4;654;417;27;4;581;8307;5;605;215;28;5;0;0;0;0;0;0;0;0;6;954;15875;4;498;492;581;550;34;7;1433;14598;4;1521;469;31;8;664;7132;4;711;458;26;9;209;7544;4;247;545;26
31.10.20;15:50:00;1;303;9549;0;2;1639;11106;4;1730;383;31;3;896;6853;4;960;427;28;4;798;8258;5;831;211;28;5;0;0;0;0;0;0;0;0;6;1395;15793;4;712;706;588;564;34;7;2071;14478;4;2174;484;31;8;1013;7076;4;1072;463;26;9;246;7527;4;280;445;27
31.10.20;15:45:00;1;284;9524;0;2;1860;10975;4;1962;390;32;3;1066;6781;4;1131;418;28;4;901;8193;5;939;201;28;5;0;0;0;0;0;0;0;0;6;1681;15677;4;888;889;588;569;34;7;2532;14312;4;2661;479;31;8;1231;6994;4;1309;476;26;9;284;7506;4;317;361;27
31.10.20;15:40:00;1;351;9500;0;2;1836;10821;4;1934;379;32;3;1041;6693;4;1105;415;28;4;834;8118;5;869;202;28;5;0;0;0;0;0;0;0;0;6;1709;15538;4;844;851;586;565;34;7;2457;14099;4;2579;475;32;8;1189;6891;4;1256;476;26;9;481;7482;4;521;360;28
31.10.20;15:35:00;1;364;9472;0;2;1633;10667;4;1720;371;32;3;918;6606;4;979;416;28;4;710;8048;5;740;238;28;5;0;0;0;0;0;0;0;0;6;1594;15396;4;821;815;585;562;35;7;2199;13894;4;2307;466;32;8;1066;6791;4;1131;472;26;9;694;7442;4;742;372;29
31.10.20;15:30:00;1;311;9441;0;2;1693;10531;4;1785;381;32;3;952;6530;4;1014;413;28;4;727;7989;5;757;242;28;5;0;0;0;0;0;0;0;0;6;1699;15263;4;837;856;580;563;35;7;2358;13711;4;2477;469;32;8;1139;6703;4;1204;466;26;9;922;7383;4;982;415;30
31.10.20;15:25:00;1;272;9416;0;2;1474;10390;4;1566;375;33;3;829;6450;4;884;416;28;4;671;7929;5;698;238;29;5;0;0;0;0;0;0;0;0;6;1495;15120;4;757;749;569;565;35;7;1952;13514;4;2058;470;32;8;952;6607;4;1011;463;27;9;857;7306;4;917;443;30
31.10.20;15:20:00;1;315;9393;0;2;2299;10258;4;2413;377;34;3;1297;6376;4;1370;408;29;4;869;7871;5;905;209;29;5;0;0;0;0;0;0;0;0;6;2354;14987;4;1205;1196;586;566;35;7;3241;13344;4;3397;465;32;8;1600;6526;4;1676;459;27;9;1572;7234;4;1666;471;32
31.10.20;15:15:00;1;325;9367;0;2;1941;10070;4;2041;372;33;3;1099;6270;4;1165;419;29;4;729;7799;5;759;230;29;5;0;0;0;0;0;0;0;0;6;2096;14793;4;1100;1069;584;559;35;7;2752;13078;4;2883;470;32;8;1336;6393;4;1409;459;27;9;1338;7104;4;1422;481;32
31.10.20;15:10:00;1;351;9339;0;2;2314;9907;4;2433;376;34;3;1294;6178;4;1368;422;29;4;821;7738;5;856;235;29;5;0;0;0;0;0;0;0;0;6;2477;14623;4;1269;1261;585;564;35;7;3159;12855;4;3315;471;32;8;1543;6285;4;1622;464;26;9;1558;6996;4;1654;488;32
31.10.20;15:05:00;1;277;9308;0;2;2540;9715;4;2674;386;34;3;1430;6070;4;1503;413;29;4;906;7670;5;943;230;30;5;0;0;0;0;0;0;0;0;6;2772;14410;4;1400;1377;588;562;35;7;3499;12592;4;3665;467;32;8;1710;6156;4;1799;455;27;9;1817;6866;4;1924;504;32
31.10.20;15:00:00;1;242;9285;0;2;2072;9501;4;2183;383;34;3;1135;5950;4;1201;404;29;4;811;7593;5;844;227;30;5;0;0;0;0;0;0;0;0;6;2351;14181;4;1214;1185;579;563;35;7;2820;12301;4;2958;451;32;8;1382;6014;4;1458;461;26;9;1504;6715;4;1602;511;32
31.10.20;14:55:00;1;236;9266;0;2;2753;9329;4;2894;376;35;3;1518;5856;4;1598;394;29;4;1062;7526;5;1106;229;30;5;0;0;0;0;0;0;0;0;6;3102;13984;4;1591;1557;577;570;35;7;3471;12064;4;3642;456;32;8;1704;5899;4;1784;455;26;9;1875;6589;4;2004;499;33
31.10.20;14:50:00;1;256;9246;0;2;3020;9097;4;3179;389;34;3;1644;5728;4;1735;410;29;4;1228;7437;5;1279;238;30;5;0;0;0;0;0;0;0;0;6;3466;13720;4;1781;1720;583;566;35;7;3973;11773;4;4171;463;32;8;1974;5756;4;2072;449;26;9;2196;6433;4;2324;513;32
31.10.20;14:45:00;1;298;9225;0;2;2288;8845;4;2410;382;33;3;1212;5591;4;1284;400;29;4;1151;7334;5;1199;246;31;5;0;0;0;0;0;0;0;0;6;2768;13432;4;1431;1407;579;562;35;7;3061;11442;4;3210;465;32;8;1513;5591;4;1596;438;26;9;1713;6250;4;1815;503;31
31.10.20;14:40:00;1;287;9200;0;2;2756;8658;4;2896;379;33;3;1513;5492;4;1596;404;29;4;1435;7240;5;1495;243;31;5;0;0;0;0;0;0;0;0;6;3330;13205;4;1714;1694;579;568;34;7;3258;11196;4;3417;468;31;8;1587;5470;4;1667;440;26;9;1743;6113;4;1845;491;32
31.10.20;14:35:00;1;231;9176;0;2;2776;8430;4;2920;390;33;3;1506;5367;4;1596;434;29;4;1517;7121;5;1580;243;31;5;0;0;0;0;0;0;0;0;6;3274;12932;4;1667;1620;590;558;34;7;3445;10927;4;3605;462;31;8;1683;5338;4;1773;471;26;9;1868;5968;4;1979;497;32
31.10.20;14:30:00;1;215;9156;0;2;2356;8200;4;2482;392;32;3;1398;5242;4;1484;455;29;4;1491;6995;5;1553;243;31;5;0;0;0;0;0;0;0;0;6;3013;12655;4;1551;1512;579;561;34;7;3107;10639;4;3256;456;31;8;1537;5197;4;1617;453;26;9;1693;5811;4;1797;512;31
31.10.20;14:25:00;1;247;9138;0;2;2548;8004;4;2685;393;31;3;1537;5126;4;1635;508;29;4;1598;6871;5;1665;244;31;5;0;0;0;0;0;0;0;0;6;3142;12407;4;1624;1581;585;570;34;7;3312;10379;4;3477;466;31;8;1672;5068;4;1756;466;26;9;1881;5669;4;1996;514;31
31.10.20;14:20:00;1;300;9117;0;2;1866;7792;4;1971;392;31;3;1186;4997;4;1268;507;29;4;1342;6737;5;1398;236;31;5;0;0;0;0;0;0;0;0;6;2401;12144;4;1234;1215;575;564;34;7;2410;10101;4;2534;467;31;8;1204;4928;4;1276;449;26;9;1325;5511;4;1409;498;31
31.10.20;14:15:00;1;269;9093;0;2;2422;7639;4;2554;399;31;3;1579;4900;4;1676;494;29;4;1689;6626;5;1760;243;31;5;0;0;0;0;0;0;0;0;6;3121;11944;4;1626;1579;585;553;34;7;3302;9896;4;3467;469;31;8;1636;4825;4;1719;464;26;9;1796;5398;4;1905;514;31
31.10.20;14:10:00;1;250;9071;0;2;1897;7440;4;2002;391;31;3;1222;4770;4;1308;517;29;4;1446;6487;5;1506;243;31;5;0;0;0;0;0;0;0;0;6;2602;11690;4;1325;1302;581;570;34;7;2651;9628;4;2782;463;31;8;1288;4694;4;1354;448;26;9;1420;5253;4;1513;513;30
31.10.20;14:05:00;1;276;9051;0;2;1677;7281;4;1775;387;31;3;1074;4668;4;1150;486;29;4;1306;6366;5;1361;239;31;5;0;0;0;0;0;0;0;0;6;2253;11477;4;1164;1131;573;559;34;7;2134;9407;4;2247;454;31;8;1050;4586;4;1109;458;26;9;1163;5135;4;1244;501;30
31.10.20;14:00:00;1;276;9027;0;2;1667;7141;4;1763;385;31;3;1069;4578;4;1147;503;29;4;1305;6257;5;1360;240;31;5;0;0;0;0;0;0;0;0;6;2277;11281;4;1171;1143;578;554;34;7;2240;9229;4;2351;459;31;8;1092;4498;4;1155;465;26;9;1196;5037;4;1279;517;31
31.10.20;13:55:00;1;270;9005;0;2;1558;7002;4;1652;389;32;3;997;4488;4;1073;501;29;4;1265;6147;5;1318;235;31;5;0;0;0;0;0;0;0;0;6;2174;11092;4;1120;1092;573;560;34;7;1988;9041;4;2093;446;32;8;976;4406;4;1035;449;26;9;1076;4936;4;1154;504;31